This is the latest recevied weather packets stored in our database for station/object EA5AER-5. If no packets are shown the sender has not sent any weather packets the latest 10 day(s).
| Time | Temp. | Humidity | Pressure | Rain* | Wind** | Luminosity | Snow |
|---|---|---|---|---|---|---|---|
| 1777809359 | 19.44° C | 74% | 1012.4 hPa | 0 mm | - | 513 W/m² | - |
| 1777808160 | 19.44° C | 72% | 1012.6 hPa | 0 mm | - | 380 W/m² | - |
| 1777806923 | 19.44° C | 73% | 1012.9 hPa | 0 mm | - | 628 W/m² | - |
| 1777805687 | 19.44° C | 73% | 1012.9 hPa | 0 mm | - | 628 W/m² | - |
| 1777804379 | 19.44° C | 72% | 1013.4 hPa | 0 mm | - | 200 W/m² | - |
| 1777803234 | 19.44° C | 72% | 1013.4 hPa | 0 mm | - | 200 W/m² | - |
| 1777802023 | 19.44° C | 74% | 1013.5 hPa | 0 mm | - | 230 W/m² | - |
| 1777800799 | 18.89° C | 76% | 1013.3 hPa | 0 mm | - | 304 W/m² | - |
| 1777799619 | 18.89° C | 76% | 1013.8 hPa | 0 mm | - | 47 W/m² | - |
| 1777798459 | 18.89° C | 76% | 1013.8 hPa | 0 mm | - | 47 W/m² | - |
| 1777797259 | 18.33° C | 78% | 1013.8 hPa | 0 mm | - | 70 W/m² | - |
| 1777796099 | 18.33° C | 78% | 1013.8 hPa | 0 mm | - | 70 W/m² | - |
| 1777794932 | 18.33° C | 80% | 1014 hPa | 0 mm | - | 67 W/m² | - |
| 1777793736 | 18.33° C | 82% | 1013.4 hPa | 0 mm | - | 65 W/m² | - |
| 1777792409 | 18.33° C | 81% | 1013 hPa | 0 mm | - | 113 W/m² | - |
| 1777791263 | 18.33° C | 80% | 1013 hPa | 0 mm | - | 67 W/m² | - |
| 1777790093 | 18.33° C | 80% | 1013.1 hPa | 0 mm | - | 77 W/m² | - |
| 1777788773 | 17.78° C | 80% | 1013 hPa | 0 mm | - | 58 W/m² | - |
| 1777787622 | 17.78° C | 84% | 1013 hPa | 0 mm | - | 16 W/m² | - |
| 1777786532 | 17.78° C | 84% | 1013 hPa | 0 mm | - | 16 W/m² | - |
| 1777785329 | 17.22° C | 86% | 1012.8 hPa | 0 mm | - | 0 W/m² | - |
| 1777784127 | 17.22° C | 86% | 1012.8 hPa | 0 mm | - | 0 W/m² | - |
| 1777782953 | 17.22° C | 86% | 1012.8 hPa | 0 mm | - | 0 W/m² | - |
| 1777781742 | 16.67° C | 86% | 1012.6 hPa | 0 mm | - | 0 W/m² | - |
| 1777780508 | 16.67° C | 86% | 1012.9 hPa | 0 mm | - | 0 W/m² | - |
* Rain latest hour (hover to see other rain measurements)
** Current wind speed in m/s (hover to see current wind gust speed)